Regional Weather Roundup
Issued by NWS Midland/Odessa, TX

Skip options and go directly to product.
Home | Oldest Version | Previous Version | Current Version | All | Text Only | Save Text | Print | Product List | Glossary Off

Skip product version selection by date and time.   

724
ASUS44 KMAF 280610
RWRMAF
MIDLAND AREA WEATHER ROUNDUP
NATIONAL WEATHER SERVICE MIDLAND TX
100 AM CDT SUN MAY 28 2017

...IN SOUTHWEST TEXAS AND SOUTHEAST NEW MEXICO...

CITY           SKY/WX    TMP DP  RH WIND       PRES   REMARKS
ALPINE         CLOUDY    74  39  28 N3        30.10S
ANDREWS        FAIR      78  16  10 NW12      29.92F
ARTESIA        CLEAR     68  10  10 W13       29.95S
BIG SPRING     CLEAR     77  52  41 S7        29.91F
CARLSBAD       CLEAR     71  17  12 SW9       29.92S
DRYDEN           N/A     80  71  74 N3        29.86R
FORT STOCKTON  PTCLDY    80  64  58 S8        29.94S
GUAD PASS      CLEAR     77  15   9 CALM      30.12R
HOBBS          CLEAR     66   7   9 W13       29.97S
MARFA          PTCLDY    70  32  24 N5        30.08S
MIDLAND AIRPK  CLEAR     79  32  18 S9        29.92R
MIDLAND INTL   CLEAR     80  37  21 S10       29.91R
ODESSA         CLEAR     77  39  25 S9        29.93R
PECOS          CLOUDY    78  31  17 SE7       29.90R
PRESIDIO       FAIR      90  34  13 N7        29.91R
SEMINOLE       CLEAR     69  16  13 W8        29.95R
SNYDER         PTCLDY    79  40  25 SW6       29.88R
WINK           CLOUDY    80  18  10 NW8       29.88F
$$
...OTHER STATIONS IN TEXAS...

CITY           SKY/WX    TMP DP  RH WIND       PRES   REMARKS
ABILENE        CLEAR     84  70  62 SW18G26   29.82S
AMARILLO       CLEAR     54  48  80 N15       30.11R
AUSTIN         CLOUDY    78  74  87 S8        29.85F
BROWNSVILLE    CLOUDY    83  78  85 S13       29.88S
CORPUS CHRISTI CLOUDY    81  78  91 S14       29.87R
DALLAS FTW     PTCLDY    84  74  71 S20       29.73F
DEL RIO        CLEAR     80  70  71 CALM      29.77F
EL PASO        CLEAR     79  10   7 NW12      29.99F
HOUSTON INT    MOCLDY    81  75  82 S9        29.86S
LUBBOCK        PTCLDY    73  52  47 NE24      29.97R
SAN ANGELO     CLEAR     82  67  60 W9        29.86R
SAN ANTONIO    MOCLDY    78  73  84 SE14      29.85F
WACO           PTCLDY    79  72  79 S17G25    29.80R
WICHITA FALLS  NOT AVBL
$$
...OTHER LOCATIONS IN NEW MEXICO...

CITY           SKY/WX    TMP DP  RH WIND       PRES   REMARKS
ALAMOGORDO     CLEAR     68   9  10 NE7       30.04R
ALBUQUERQUE    CLEAR     69  22  16 N9        30.13R
CANNON AFB     CLEAR     56  47  73 NE28G39   30.10R
CLOVIS         CLEAR     55  43  62 NE26G43   30.11R
HOLLOMAN AFB   CLEAR     66   6   9 NE7       30.06R
ROSWELL        CLEAR     71   7   8 W13       29.95R
RUIDOSO        CLEAR     63   5  10 W10       30.22S
SANTA FE       CLEAR     52  22  30 N8        30.17R
TRUTH OR CONSE CLEAR     66   3   8 N5        30.08R
TUCUMCARI      CLEAR     58  45  62 NE10      30.14R
$$

  • National Weather Service
  • Southern Region Headquarters
  • 819 Taylor Street, Room 10A06
  • Fort Worth, TX 76102
  • Page Author: NWS Fort Worth
  • Web Master: SR-SRH.Webmaster@noaa.gov
  •  
  • Page last modified: 30-Sep-2016 6:36 PM UTC
USA.gov is the U.S. government's official web portal to all federal, state and local government web resources and services.